Weather History for Watertown, SD

Change the Weather History Date:

Sunday, October 16, 2011

  Actual Average Record
Temperature  
Mean Temperature 43 °F 46 °F  
Max Temperature 53 °F 57 °F 88 °F (1910)
Min Temperature 33 °F 35 °F 19 °F (1976)
Degree Days  
Heating Degree Days 22 20  
Month to date heating degree days 102 263  
Since 1 July heating degree days 340 539  
Cooling Degree Days 0 0  
Month to date cooling degree days 17 0  
Year to date cooling degree days 599 513  
Moisture  
Dew Point 33 °F    
Average Humidity 67    
Maximum Humidity 92    
Minimum Humidity 41    
Precipitation  
Precipitation 0.00 in 0.07 in 3.72 in (1971)
Month to date precipitation 0.23 1.13  
Year to date precipitation 19.45 20.00  
Snow  
Snow 0.00 in - - ()
Month to date snowfall 0.0  
Since 1 July snowfall 0.0  
Snow Depth 0.00 in    
Sea Level Pressure  
Sea Level Pressure 29.98 in    
Wind  
Wind Speed 13 mph (WNW)    
Max Wind Speed 26 mph    
Max Gust Speed 35 mph    
Visibility 10 miles    
Events      
T = Trace of Precipitation, MM = Missing Value Source: NWS Daily Summary

Daily Weather History Graph

Daily Weather History Graph

Search for Another Location

Airport:

Trip Planner

Search our weather history database for the weather conditions in past years. The results will help you decide how hot, cold, wet, or windy it might be!

Date:

Astronomy

Oct. 16, 2011 Rise Set
Actual Time 7:45 AM CDT 6:42 PM CDT
Civil Twilight 7:15 AM CDT 7:11 PM CDT
Nautical Twilight 6:41 AM CDT 7:45 PM CDT
Astronomical Twilight 6:07 AM CDT 8:19 PM CDT
Moon 9:18 PM CDT (10/16) 12:14 PM CDT (10/16)
Length of Visible Light 11h 56m
Length of Day
10h 57m
Waning Gibbous, 82% of the Moon is Illuminated
Oct 16
Waning Gibbous
Oct 19
Last Quarter
Oct 26
New
Nov 2
First Quarter
Nov 10
Full

Hourly Weather History & Observations

Time (CDT) Temp. Windchill Dew Point Humidity Pressure Visibility Wind Dir Wind Speed Gust Speed Precip Events Conditions
12:53 AM 45.0 °F 41.8 °F 37.0 °F 74% 29.92 in 10.0 mi WNW 5.8 mph - N/A   Mostly Cloudy
1:53 AM 46.0 °F 42.5 °F 37.0 °F 71% 29.92 in 10.0 mi WNW 6.9 mph - N/A   Overcast
2:53 AM 43.0 °F 38.2 °F 37.0 °F 80% 29.94 in 10.0 mi NW 8.1 mph - N/A   Clear
3:53 AM 42.8 °F 37.0 °F 37.4 °F 81% 29.91 in 10.0 mi WNW 10.4 mph - N/A   Clear
4:53 AM 41.0 °F 33.9 °F 37.0 °F 86% 29.95 in 10.0 mi WNW 12.7 mph - N/A   Clear
5:53 AM 39.2 °F 31.6 °F 35.6 °F 87% 29.94 in 10.0 mi West 12.7 mph - N/A   Clear
6:53 AM 39.0 °F 32.3 °F 36.0 °F 89% 29.97 in 10.0 mi West 10.4 mph - N/A   Partly Cloudy
7:53 AM 37.9 °F 30.5 °F 36.0 °F 93% 29.99 in 10.0 mi West 11.5 mph - N/A   Partly Cloudy
8:01 AM 37.4 °F 29.3 °F 37.4 °F 100% 29.96 in 10.0 mi West 12.7 mph - N/A   Partly Cloudy
8:53 AM 39.9 °F 32.1 °F 37.9 °F 93% 30.01 in 10.0 mi WNW 13.8 mph - N/A   Partly Cloudy
9:53 AM 44.1 °F 36.5 °F 37.0 °F 76% 30.01 in 10.0 mi NW 17.3 mph - N/A   Clear
10:53 AM 46.9 °F - 34.0 °F 61% 30.01 in 10.0 mi NW 23.0 mph 27.6 mph N/A   Clear
11:53 AM 50.0 °F - 32.0 °F 50% 30.01 in 10.0 mi NNW 24.2 mph 29.9 mph N/A   Clear
12:53 PM 52.0 °F - 32.0 °F 47% 30.02 in 10.0 mi NW 19.6 mph 31.1 mph N/A   Clear
1:53 PM 53.1 °F - 30.9 °F 43% 30.00 in 10.0 mi NW 21.9 mph 31.1 mph N/A   Clear
2:53 PM 52.0 °F - 28.9 °F 41% 30.00 in 10.0 mi WNW 23.0 mph 29.9 mph N/A   Clear
3:53 PM 52.0 °F - 28.0 °F 40% 29.99 in 10.0 mi WNW 19.6 mph 25.3 mph N/A   Clear
4:53 PM 51.1 °F - 28.9 °F 43% 29.99 in 10.0 mi WNW 17.3 mph 26.5 mph N/A   Clear
5:53 PM 50.0 °F - 30.0 °F 46% 29.99 in 10.0 mi WNW 10.4 mph 20.7 mph N/A   Clear
6:53 PM 46.9 °F - 28.9 °F 50% 29.99 in 10.0 mi WNW 10.4 mph - N/A   Clear
7:53 PM 45.0 °F 40.6 °F 30.0 °F 56% 30.00 in 10.0 mi West 8.1 mph - N/A   Clear
8:53 PM 37.0 °F 31.0 °F 30.0 °F 76% 30.01 in 10.0 mi WSW 8.1 mph - N/A   Clear
9:53 PM 37.0 °F 31.6 °F 30.0 °F 76% 30.01 in 10.0 mi West 6.9 mph - N/A   Clear
10:53 PM 37.9 °F 32.7 °F 30.9 °F 76% 30.01 in 10.0 mi West 6.9 mph - N/A   Clear
11:53 PM 39.0 °F 33.4 °F 30.9 °F 73% 30.00 in 10.0 mi WNW 8.1 mph - N/A   Clear